Regional Weather Roundup
Issued by NWS

Home | Current Version | Previous Version | Graphics & Text | Print | Product List | Glossary On
Versions: 1 2 3 4 5 6 7 8 9 10 11 12 13 14 15 16 17 18 19 20 21 22 23 24 25 26 27 28 29 30 31 32 33 34 35 36 37 38 39 40 41 42 43 44 45 46 47 48 49 50
000
ASUS43 KFSD 241402
RWRSD

WEATHER ROUNDUP FOR SOUTH DAKOTA
NATIONAL WEATHER SERVICE SIOUX FALLS SD
800 AM CST FRI NOV 24 2017

NOTE: "FAIR" INDICATES FEW OR NO CLOUDS BELOW 12,000 FEET WITH NO
SIGNIFICANT WEATHER AND/OR OBSTRUCTIONS TO VISIBILITY.


SDZ001>005-009-010-012>017-241500-
NORTHWEST AND NORTH CENTRAL SOUTH DAKOTA

CITY           SKY/WX    TMP DP  RH WIND       PRES   REMARKS
FAITH            N/A     49  44  83 NW20      29.60R
MOBRIDGE       CLOUDY    55  42  61 NW14      29.49R
$$

SDZ012>016-024>037-041>051-057-063-072>074-241500-
SOUTHWEST AND SOUTH CENTRAL SOUTH DAKOTA

CITY           SKY/WX    TMP DP  RH WIND       PRES   REMARKS
RAPID CTY ARPT CLEAR     53  38  56 N29G45    29.66R
PIERRE         CLOUDY    51  37  58 NW18      29.52R
CUSTER         CLEAR     48  29  47 NW13G22   29.70R
ELLSWORTH AFB  CLOUDY    53  39  60 N26G38    29.67R
PHILIP         CLOUDY    56  37  49 NW22G30   29.59R
PINE RIDGE     CLEAR     54  37  52 W9        29.63R
SPEARFISH      LGT RAIN  46  41  81 W14G21    29.73R
WINNER         FAIR      54  39  57 W12       29.48R
$$

SDZ004>011-016>023-039-040-241500-
NORTHEAST SOUTH DAKOTA

CITY           SKY/WX    TMP DP  RH WIND       PRES   REMARKS
ABERDEEN       CLOUDY    42  36  79 SW7       29.44R
WATERTOWN      CLOUDY    35  34  96 CALM      29.40R
BROOKINGS      PTCLDY    35  33  92 CALM      29.42R
SISSETON         N/A     54  38  54 NW14      29.35R
$$

SDZ017-020-022-023-036>040-048>070-241500-
SOUTHEAST SOUTH DAKOTA

CITY           SKY/WX    TMP DP  RH WIND       PRES   REMARKS
SIOUX FALLS    CLEAR     39  37  92 S5        29.41F
HURON          MOCLDY    38  36  92 NE3       29.43R
CHAMBERLAIN    CLEAR     45  39  80 W9        29.45S
MITCHELL       PTCLDY    49  38  65 W13       29.42R
YANKTON        CLEAR     43  37  79 SW9       29.44F
$$

ABBREVIATIONS USED IN REMARKS
   TC - TEMPERATURE IN CELSIUS
  WCI - WIND CHILL INDEX
   HX - HEAT INDEX
  VSB - VISIBILITY




USA.gov is the U.S. government's official web portal to all federal, state and local government web resources and services.